SCOUT X-4 DEB, 2011

Orbit data source: Space-Track

SCOUT X-4 DEB, 2011 is space debris in LEO originally from a launch on Thu, 29 Apr 1965 UTC launched from the Wallops Island (WLPIS). Debris objects in space refer to the collection of defunct objects orbiting the Earth. Examples of debris include non-operational satellites, rocket bodies, and fragments generated from explosions, collisions, or faulty payload assembly.

Loading next visibility...
Identifier
2011, 1965-032D
Orbit
LEO
Last TLE update
3 days ago
Origin
Manufacturer
Unknown
Mission
Spacecraft
Bus & Motor
Unknown
Mass
Unknown
Launch date (UTC)
1965-04-29 (60 years ago)
Launch vehicle
Unknown
Launch site
Wallops Island (WLPIS)
Object type
Payload
Rocket body
Debris
Shape & HBR
Unknown
Radar Cross Section
Small (<0.1 m²)

Expand to show TLE details & history

TLE from 3 days ago
0 SCOUT X-4 DEB
1 02011U 65032D   25160.66521618  .00000114  00000-0  30393-3 0  9996
2 02011  41.1982 279.9377 0234570 149.0901 338.7531 13.40413205927326
Epoch: 2025-06-09T15:57Z
TLE epoch observation values (Epoch: 2025-06-09T15:57:54.677Z)
Latitude
31.92984°
Longitude
-82.89796°
Altitude
945.467 km
Speed
7.463 km/s
True Right ascension
03h 39m 24s
True Declination
31° 46' 47"
Sunlit
Object was in daylight at epoch
Visualization orbit readout
Latitude
-41.29751°
Longitude
36.03926°
Altitude
1,155.158 km
Speed
7.259 km/s
Apparent Right ascension
12h 58m 33s
Apparent Declination
-42° 44' 43"
Sunlit
Object is in daylight
Visualization observer readout
Local Sidereal Time
02:35:48
Azimuth
106.776° ESE
Elevation
-71.592°
Doppler factor
1
Orbital elements
Apogee altitude
1,285.446 km
Perigee altitude
934.157 km
Semi-major axis
7,487.939 km
Eccentricity
0.02346
Inclination
41.1982°
RAAN
279.9377°
Arg. of periapsis
149.0901°
True anomaly
Unknown
Mean anomaly
338.7531°
Eccentric anomaly
Unknown
Mean motion
3.34965 °/min
Orbital period
107.47 mins
BSTAR
0.00030393
Loading maneuver chart data...
Loading SW <> Apogee altitude chart data...
Loading historical data...
Loading historical data...
Loading historical data...
Loading historical data...
Loading historical data...
Loading historical data...
Loading historical data...
Other satellites on launch #32 in the year 1965 (1965-04-29 UTC)

SCOUT X-4 DEB Visibility forecast

Observer location: undefined°, undefined°

Span
Click to sort rows by Start time (UTC) header in descending order
Start Az.
Max El. time (UTC)
Max El. Az.
Max El.
End time (UTC)
End Az.
10 mins2025-06-12 17:14:19.004Z270.752° WNW2025-06-12 17:19:19.004Z219.637° SW23.084°2025-06-12 17:24:19.004Z165.545° S
10 mins2025-06-13 08:55:19.004Z186.01° SSW2025-06-13 08:59:19.004Z148.043° SSE24.477°2025-06-13 09:05:19.004Z90.42° ESE
13 mins2025-06-13 10:46:19.004Z237.147° WSW2025-06-13 10:53:19.004Z138.15° SSE42.568°2025-06-13 10:59:19.004Z77.721° E
13 mins2025-06-13 12:40:19.004Z269.062° W2025-06-13 12:46:19.004Z316.495° NNW44.457°2025-06-13 12:53:19.004Z84.669° E
11 mins2025-06-13 14:35:19.004Z281.678° WNW2025-06-13 14:40:19.004Z207.632° SW44.668°2025-06-13 14:46:19.004Z110.811° ESE
|